This demonstration page uses our WeatherBlox Daily Observations layout. Learn more.

Left ArrowRight Arrow

Hourly Observations for August 4, 2016

Temp ( °F °C ) Dew Point ( °F °C ) Humidity (%) Winds ( mph kmh ) Pressure ( in mb ) Visibility ( mi km ) Precip ( " mm )
12:18 am 00:18 Partly Cloudy 72 22 68 20 88 88 Calm 29.97 1015 10 16.0934 N/A
12:38 am 00:38 Clear 72 22 68 20 88 88 Calm 30 1016 10 16.0934 N/A
12:58 am 00:58 Clear 72 22 68 20 88 88 Calm 30 1016 10 16.0934 N/A
1:19 am 01:19 Clear 70 21 68 20 94 94 Calm 29.97 1015 10 16.0934 N/A
1:38 am 01:38 Clear 70 21 68 20 94 94 Calm 29.97 1015 10 16.0934 N/A
1:58 am 01:58 Clear 70 21 68 20 94 94 Calm 29.97 1015 10 16.0934 N/A
2:19 am 02:19 Clear 68 20 68 20 100 100 Calm 30 1016 10 16.0934 N/A
2:38 am 02:38 Partly Cloudy 68 20 68 20 100 100 Calm 30 1016 10 16.0934 N/A
2:58 am 02:58 Partly Cloudy 68 20 66 19 94 94 Calm 30 1016 10 16.0934 N/A
3:18 am 03:18 Clear 68 20 66 19 94 94 Calm 30 1016 10 16.0934 N/A
3:38 am 03:38 Clear 66 19 66 19 100 100 Calm 30 1016 10 16.0934 N/A
3:59 am 03:59 Clear 68 20 66 19 94 94 Calm 30 1016 10 16.0934 N/A
4:18 am 04:18 Clear 68 20 66 19 94 94 Calm 30 1016 10 16.0934 N/A
4:38 am 04:38 Clear 68 20 66 19 94 94 Calm 30 1016 10 16.0934 N/A
4:59 am 04:59 Clear 66 19 64 18 94 94 Calm 30 1016 10 16.0934 N/A
5:18 am 05:18 Clear 66 19 64 18 94 94 Calm 30 1016 10 16.0934 N/A
5:38 am 05:38 Clear 66 19 64 18 94 94 Calm 30 1016 10 16.0934 N/A
5:59 am 05:59 Clear 64 18 64 18 100 100 Calm 30 1016 10 16.0934 N/A
6:18 am 06:18 Clear 66 19 64 18 94 94 Calm 30 1016 7 11.26538 N/A
6:38 am 06:38 Clear 66 19 64 18 94 94 NNE 3 6 30 1016 10 16.0934 N/A
6:59 am 06:59 Mostly Cloudy 66 19 64 18 94 94 Calm 30 1016 10 16.0934 N/A
7:18 am 07:18 Partly Cloudy 66 19 64 18 94 94 Calm 30 1016 10 16.0934 N/A
7:38 am 07:38 Sunny 66 19 64 18 94 94 SE 5 7 30 1016 7 11.26538 N/A
7:59 am 07:59 Sunny 68 20 66 19 94 94 Calm 30 1016 10 16.0934 N/A
8:18 am 08:18 Sunny 70 21 68 20 94 94 Calm 30 1016 10 16.0934 N/A
8:38 am 08:38 Partly Cloudy 72 22 68 20 88 88 Calm 30 1016 10 16.0934 N/A
8:59 am 08:59 Mostly Cloudy 72 22 70 21 94 94 Calm 30 1016 10 16.0934 N/A
9:18 am 09:18 Mostly Cloudy 75 24 70 21 83 83 Calm 30 1016 10 16.0934 N/A
9:39 am 09:39 Partly Cloudy 75 24 72 22 89 89 ESE 3 6 30 1016 10 16.0934 N/A
9:58 am 09:58 Mostly Cloudy 77 25 72 22 83 83 Calm 30 1016 10 16.0934 N/A
10:18 am 10:18 Mostly Cloudy 79 26 72 22 79 79 Calm 30 1016 10 16.0934 N/A
10:39 am 10:39 Partly Cloudy 79 26 72 22 79 79 SSE 5 7 30 1016 10 16.0934 N/A
10:58 am 10:58 Mostly Cloudy 81 27 72 22 74 74 Calm 30 1016 10 16.0934 N/A
11:18 am 11:18 Mostly Cloudy 82 28 72 22 70 70 Calm 30 1016 10 16.0934 N/A
11:39 am 11:39 Partly Cloudy 82 28 72 22 70 70 Calm 30 1016 10 16.0934 N/A
11:58 am 11:58 Partly Cloudy 86 30 73 23 66 66 SSE 5 7 30 1016 10 16.0934 N/A
12:18 pm 12:18 Sunny 84 29 73 23 70 70 Calm 30 1016 10 16.0934 N/A
12:39 pm 12:39 Sunny 84 29 73 23 70 70 S 5 7 29.97 1015 10 16.0934 N/A
12:58 pm 12:58 Partly Cloudy 84 29 72 22 66 66 S 5 7 29.97 1015 10 16.0934 N/A
1:18 pm 13:18 Partly Cloudy 84 29 72 22 66 66 SSE 7 11 29.97 1015 10 16.0934 N/A
1:39 pm 13:39 Sunny 86 30 72 22 62 62 SE 8 13 29.97 1015 10 16.0934 N/A
1:58 pm 13:58 Partly Cloudy 86 30 72 22 62 62 SE 6 9 29.97 1015 10 16.0934 N/A
2:18 pm 14:18 Mostly Cloudy 84 29 72 22 66 66 SSE 7 11 29.97 1015 10 16.0934 N/A
2:39 pm 14:39 Mostly Cloudy 88 31 72 22 59 59 SE 7 11 29.94 1014 10 16.0934 N/A
2:58 pm 14:58 Partly Cloudy 88 31 70 21 55 55 N 7 11 29.94 1014 10 16.0934 N/A
3:18 pm 15:18 Mostly Cloudy 82 28 72 22 70 70 N 12 19 29.94 1014 10 16.0934 N/A
3:38 pm 15:38 Cloudy 77 25 72 22 83 83 N 10 17 29.97 1015 10 16.0934 N/A
3:58 pm 15:58 Cloudy 73 23 70 21 89 89 Calm 29.97 1015 0.75 1.207005 N/A
4:19 pm 16:19 Cloudy 75 24 68 20 78 78 W 5 7 29.97 1015 7 11.26538 N/A
4:38 pm 16:38 Cloudy 73 23 70 21 89 89 SW 14 22 29.97 1015 7 11.26538 N/A
4:58 pm 16:58 Cloudy 73 23 68 20 83 83 S 6 9 29.97 1015 10 16.0934 N/A
5:19 pm 17:19 Partly Cloudy 75 24 72 22 89 89 SSE 5 7 29.94 1014 10 16.0934 N/A
5:38 pm 17:38 Partly Cloudy 77 25 72 22 83 83 Calm 29.94 1014 10 16.0934 N/A
5:58 pm 17:58 Partly Cloudy 79 26 72 22 79 79 Calm 29.94 1014 10 16.0934 N/A
6:19 pm 18:19 Sunny 81 27 72 22 74 74 S 3 6 29.94 1014 10 16.0934 N/A
6:38 pm 18:38 Sunny 81 27 72 22 74 74 Calm 29.94 1014 10 16.0934 N/A
6:58 pm 18:58 Sunny 81 27 73 23 79 79 SSW 5 7 29.94 1014 10 16.0934 N/A
7:19 pm 19:19 Sunny 81 27 72 22 74 74 Calm 29.94 1014 10 16.0934 N/A
7:38 pm 19:38 Sunny 79 26 72 22 79 79 SSW 3 6 29.94 1014 10 16.0934 N/A
7:58 pm 19:58 Sunny 79 26 73 23 84 84 Calm 29.91 1013 10 16.0934 N/A
8:19 pm 20:19 Sunny 79 26 73 23 84 84 SE 3 6 29.91 1013 10 16.0934 N/A
8:38 pm 20:38 Sunny 77 25 72 22 83 83 Calm 29.91 1013 10 16.0934 N/A
8:59 pm 20:59 Partly Cloudy 75 24 73 23 94 94 Calm 29.91 1013 10 16.0934 N/A
9:18 pm 21:18 Clear 73 23 72 22 94 94 Calm 29.91 1013 10 16.0934 N/A
9:38 pm 21:38 Clear 72 22 70 21 94 94 Calm 29.91 1013 7 11.26538 N/A
9:59 pm 21:59 Clear 72 22 70 21 94 94 Calm 29.91 1013 7 11.26538 N/A
10:18 pm 22:18 Clear 72 22 70 21 94 94 Calm 29.94 1014 7 11.26538 N/A
10:38 pm 22:38 Clear 72 22 70 21 94 94 W 3 6 29.94 1014 7 11.26538 N/A
10:59 pm 22:59 Clear 70 21 70 21 100 100 WSW 3 6 29.94 1014 5 8.0467 N/A
11:18 pm 23:18 Clear 70 21 70 21 100 100 S 3 6 29.94 1014 5 8.0467 N/A
11:38 pm 23:38 Clear 70 21 70 21 100 100 Calm 29.94 1014 5 8.0467 N/A
11:59 pm 23:59 Clear 72 22 70 21 94 94 S 3 6 29.94 1014 5 8.0467 N/A

Powered by AerisWeather